Weather History for EGPF - May, 2014

Change the Weather History Date:

Thursday, May 29, 2014

  Actual Average Record
Temperature  
Mean Temperature 52 °F -  
Max Temperature 57 °F 61 °F - (-1)
Min Temperature 48 °F 47 °F - (-1)
Degree Days  
Heating Degree Days 12    
Growing Degree Days 2 (Base 50)    
Moisture  
Dew Point 45 °F    
Average Humidity 77    
Maximum Humidity 94    
Minimum Humidity 63    
Precipitation  
Precipitation 0.00 in - - ()
Sea Level Pressure  
Sea Level Pressure 30.19 in    
Wind  
Wind Speed 9 mph ()    
Max Wind Speed 14 mph    
Max Gust Speed 23 mph    
Visibility 6.2 miles    
Events Rain    
Averages and records for this station are not official NWS values.
T = Trace of Precipitation, MM = Missing Value Source: Averaged Metar Reports

Daily Weather History Graph

Daily Weather History Graph

Search for Another Location

Airport or City:

Trip Planner

Search our weather history database for the weather conditions in past years. The results will help you decide how hot, cold, wet, or windy it might be!

Date:

Astronomy

May. 29, 2014 Rise Set
Actual Time 4:44 AM BST 9:47 PM BST
Civil Twilight 3:48 AM BST 10:43 PM BST
Nautical Twilight 1:58 AM BST 12:37 AM BST
Astronomical Twilight Sun does not set Sun does not set
Moon 5:39 AM BST (5/29) 10:13 PM BST (5/29)
Length of Visible Light 18h 54m
Length of Day
17h 02m
New Moon, 0% of the Moon is Illuminated
May 29
New Moon
Jun 5
First Quarter
Jun 13
Full
Jun 19
Last Quarter
Jun 27
New

Hourly Weather History & Observations

Time (BST) Temp. Dew Point Humidity Pressure Visibility Wind Dir Wind Speed Gust Speed Precip Events Conditions
12:20 AM 50.0 °F 48.2 °F 94% 30.15 in 6.2 mi ENE 11.5 mph - N/A Rain Light Rain
12:50 AM 50.0 °F 48.2 °F 94% 30.15 in 6.2 mi ENE 10.4 mph - N/A Rain Light Rain
1:20 AM 50.0 °F 48.2 °F 94% 30.15 in 6.2 mi ENE 9.2 mph - N/A Rain Light Rain
1:50 AM 50.0 °F 46.4 °F 87% 30.15 in 6.2 mi ENE 9.2 mph - N/A   Overcast
2:20 AM 48.2 °F 46.4 °F 93% 30.15 in 6.2 mi NE 9.2 mph - N/A   Overcast
2:50 AM 50.0 °F 46.4 °F 87% 30.15 in 6.2 mi NE 9.2 mph - N/A   Overcast
3:20 AM 48.2 °F 44.6 °F 87% 30.15 in 6.2 mi NE 9.2 mph - N/A   Mostly Cloudy
3:50 AM 48.2 °F 44.6 °F 87% 30.15 in 6.2 mi NNE 6.9 mph - N/A   Mostly Cloudy
4:20 AM 48.2 °F 44.6 °F 87% 30.15 in 6.2 mi NE 5.8 mph - N/A   Mostly Cloudy
4:50 AM 48.2 °F 44.6 °F 87% 30.15 in 6.2 mi NE 5.8 mph - N/A   Mostly Cloudy
5:20 AM 48.2 °F 44.6 °F 87% 30.15 in 6.2 mi ENE 5.8 mph - N/A   Overcast
5:50 AM 50.0 °F 44.6 °F 82% 30.15 in 6.2 mi ENE 8.1 mph - N/A   Mostly Cloudy
6:20 AM 50.0 °F 44.6 °F 82% 30.15 in 5.6 mi ENE 6.9 mph - N/A   Mostly Cloudy
6:50 AM 50.0 °F 44.6 °F 82% 30.15 in 5.6 mi NE 9.2 mph - N/A   Mostly Cloudy
7:20 AM 50.0 °F 44.6 °F 82% 30.15 in 6.2 mi NE 9.2 mph - N/A   Mostly Cloudy
7:50 AM 50.0 °F 44.6 °F 82% 30.18 in 6.2 mi NE 8.1 mph - N/A   Mostly Cloudy
8:20 AM 50.0 °F 46.4 °F 87% 30.18 in 6.2 mi ENE 8.1 mph - N/A   Mostly Cloudy
8:50 AM 50.0 °F 46.4 °F 87% 30.18 in 6.2 mi NE 8.1 mph - N/A   Mostly Cloudy
9:20 AM 51.8 °F 46.4 °F 82% 30.18 in 6.2 mi ENE 8.1 mph - N/A   Mostly Cloudy
9:50 AM 51.8 °F 46.4 °F 82% 30.18 in 6.2 mi ENE 9.2 mph - N/A   Mostly Cloudy
10:20 AM 51.8 °F 48.2 °F 88% 30.18 in 6.2 mi NE 8.1 mph - N/A Rain Light Rain
10:50 AM 51.8 °F 48.2 °F 88% 30.18 in 6.2 mi NE 9.2 mph - N/A   Mostly Cloudy
11:20 AM 53.6 °F 48.2 °F 82% 30.18 in 6.2 mi NE 10.4 mph - N/A   Mostly Cloudy
11:50 AM 53.6 °F 48.2 °F 82% 30.18 in 6.2 mi NE 9.2 mph - N/A   Mostly Cloudy
12:20 PM 55.4 °F 48.2 °F 77% 30.18 in 6.2 mi ENE 10.4 mph - N/A   Mostly Cloudy
12:50 PM 55.4 °F 46.4 °F 72% 30.18 in 6.2 mi ENE 11.5 mph - N/A   Mostly Cloudy
1:20 PM 55.4 °F 46.4 °F 72% 30.18 in 6.2 mi ENE 10.4 mph - N/A   Mostly Cloudy
1:50 PM 55.4 °F 46.4 °F 72% 30.18 in 6.2 mi ENE 12.7 mph - N/A   Mostly Cloudy
2:20 PM 57.2 °F 46.4 °F 67% 30.18 in 6.2 mi East 13.8 mph - N/A   Mostly Cloudy
2:50 PM 55.4 °F 46.4 °F 72% 30.18 in 6.2 mi ENE 11.5 mph - N/A   Mostly Cloudy
3:20 PM 55.4 °F 44.6 °F 67% 30.18 in 6.2 mi ENE 12.7 mph - N/A   Mostly Cloudy
3:50 PM 55.4 °F 44.6 °F 67% 30.18 in 6.2 mi East 10.4 mph - N/A   Mostly Cloudy
4:20 PM 55.4 °F 44.6 °F 67% 30.18 in 6.2 mi ENE 9.2 mph - N/A   Mostly Cloudy
4:50 PM 55.4 °F 44.6 °F 67% 30.21 in 6.2 mi ENE 8.1 mph - N/A   Mostly Cloudy
5:20 PM 55.4 °F 44.6 °F 67% 30.21 in 6.2 mi ENE 10.4 mph - N/A   Mostly Cloudy
5:50 PM 55.4 °F 44.6 °F 67% 30.21 in 6.2 mi ENE 11.5 mph 23.0 mph N/A   Mostly Cloudy
6:20 PM 55.4 °F 44.6 °F 67% 30.21 in 6.2 mi ENE 13.8 mph - N/A   Mostly Cloudy
6:50 PM 55.4 °F 42.8 °F 63% 30.21 in 6.2 mi ENE 10.4 mph - N/A   Mostly Cloudy
7:20 PM 55.4 °F 42.8 °F 63% 30.21 in 6.2 mi East 13.8 mph - N/A   Scattered Clouds
7:50 PM 55.4 °F 42.8 °F 63% 30.21 in 6.2 mi ENE 12.7 mph - N/A   Scattered Clouds
8:20 PM 55.4 °F 42.8 °F 63% 30.21 in 6.2 mi ENE 11.5 mph - N/A   Partly Cloudy
8:50 PM 53.6 °F 42.8 °F 67% 30.24 in - ENE 12.7 mph - N/A   Clear
9:20 PM 53.6 °F 42.8 °F 67% 30.24 in - ENE 11.5 mph - N/A   Clear
9:50 PM 53.6 °F 42.8 °F 67% 30.24 in - ENE 9.2 mph - N/A   Clear
10:20 PM 53.6 °F 42.8 °F 67% 30.24 in - East 10.4 mph - N/A   Clear
10:50 PM 53.6 °F 42.8 °F 67% 30.27 in - ENE 6.9 mph - N/A   Clear
11:20 PM 51.8 °F 42.8 °F 71% 30.27 in - ENE 8.1 mph - N/A   Clear
11:50 PM 51.8 °F 42.8 °F 71% 30.27 in - ENE 9.2 mph - N/A   Clear